Vernon, TX

8:10 PM CDT on March 24, 2017 (GMT -0500)
Vernon

Weather History for KF05 - December, 2012

Change the Weather History Date:

Friday, December 21, 2012

  Actual Average (KLTS) Record (KLTS)
Temperature  
Mean Temperature 44 °F -  
Max Temperature 66 °F 48 °F 66 °F (2007)
Min Temperature 23 °F 25 °F 12 °F (1998)
Degree Days  
Heating Degree Days 20    
Moisture  
Dew Point 4 °F    
Average Humidity 25    
Maximum Humidity 49    
Minimum Humidity 7    
Precipitation  
Precipitation 0.00 in - - ()
Sea Level Pressure  
Sea Level Pressure 30.32 in    
Wind  
Wind Speed 8 mph (SW)    
Max Wind Speed 20 mph    
Max Gust Speed 23 mph    
Visibility 10 miles    
Events      
Averages and records for this station are not official NWS values.
T = Trace of Precipitation, MM = Missing Value Source: NWS Daily Summary

Daily Weather History Graph

Daily Weather History Graph

Search for Another Location

Airport or City:

Trip Planner

Search our weather history database for the weather conditions in past years. The results will help you decide how hot, cold, wet, or windy it might be!

Date:

Astronomy

Dec. 21, 2012 Rise Set
Actual Time 7:39 AM CST 5:31 PM CST
Civil Twilight 7:11 AM CST 5:59 PM CST
Nautical Twilight 6:40 AM CST 6:30 PM CST
Astronomical Twilight 6:09 AM CST 7:01 PM CST
Moon 1:09 PM CST (12/21) 1:38 AM CST (12/21)
Length of Visible Light 10h 47m
Length of Day
9h 52m
Waxing Gibbous, 65% of the Moon is Illuminated
Dec 21
Waxing Gibbous
Dec 28
Full
Jan 4
Last Quarter
Jan 11
New
Jan 18
First Quarter

Hourly Weather History & Observations

Time (CST) Temp. Windchill Dew Point Humidity Pressure Visibility Wind Dir Wind Speed Gust Speed Precip Events Conditions
12:15 AM 30.0 °F 21.7 °F 2.7 °F 31% 30.39 in 10.0 mi SW 9.2 mph - N/A   Clear
12:35 AM 30.7 °F 22.6 °F 2.8 °F 31% 30.38 in 10.0 mi SW 9.2 mph - N/A   Clear
12:55 AM 30.4 °F 22.2 °F 2.7 °F 31% 30.38 in 10.0 mi SW 9.2 mph - N/A   Clear
1:15 AM 29.3 °F 20.8 °F 3.2 °F 33% 30.37 in 10.0 mi SW 9.2 mph - N/A   Clear
1:35 AM 28.6 °F 19.9 °F 3.4 °F 34% 30.37 in 10.0 mi WSW 9.2 mph - N/A   Scattered Clouds
1:55 AM 28.6 °F 19.9 °F 3.4 °F 34% 30.37 in 10.0 mi WSW 9.2 mph - N/A   Scattered Clouds
2:15 AM 28.6 °F 20.7 °F 3.4 °F 34% 30.37 in 10.0 mi WSW 8.1 mph - N/A   Clear
2:35 AM 28.0 °F 21.7 °F 3.2 °F 35% 30.37 in 10.0 mi West 5.8 mph - N/A   Clear
2:55 AM 26.8 °F - 3.9 °F 38% 30.38 in 10.0 mi Calm Calm - N/A   Clear
3:15 AM 28.2 °F - 4.3 °F 36% 30.37 in 10.0 mi Calm Calm - N/A   Clear
3:35 AM 28.8 °F - 4.5 °F 36% 30.37 in 10.0 mi Calm Calm - N/A   Clear
3:55 AM 28.9 °F - 4.8 °F 36% 30.37 in 10.0 mi Calm Calm - N/A   Clear
4:15 AM 28.8 °F 23.7 °F 5.0 °F 36% 30.37 in 10.0 mi SW 4.6 mph - N/A   Clear
4:35 AM 26.2 °F 22.1 °F 4.6 °F 40% 30.36 in 10.0 mi SSW 3.5 mph - N/A   Clear
4:55 AM 26.8 °F - 5.2 °F 40% 30.36 in 10.0 mi Calm Calm - N/A   Clear
5:35 AM 25.5 °F - 5.5 °F 43% 30.36 in 10.0 mi Calm Calm - N/A   Clear
5:55 AM 26.6 °F 21.2 °F 5.5 °F 41% 30.37 in 10.0 mi SW 4.6 mph - N/A   Clear
6:15 AM 24.3 °F - 5.5 °F 45% 30.37 in 10.0 mi Calm Calm - N/A   Clear
6:35 AM 25.0 °F 18.1 °F 6.4 °F 45% 30.38 in 10.0 mi SSW 5.8 mph - N/A   Clear
6:55 AM 24.3 °F 18.4 °F 6.6 °F 47% 30.39 in 10.0 mi SW 4.6 mph - N/A   Scattered Clouds
7:35 AM 23.5 °F - 6.6 °F 49% 30.39 in 10.0 mi Calm Calm - N/A   Clear
8:15 AM 24.1 °F 19.7 °F 6.8 °F 48% 30.40 in 10.0 mi South 3.5 mph - N/A   Clear
8:35 AM 26.1 °F - 8.6 °F 48% 30.40 in 10.0 mi Calm Calm - N/A   Clear
8:55 AM 28.8 °F 23.7 °F 8.6 °F 43% 30.40 in 10.0 mi SW 4.6 mph - N/A   Clear
9:15 AM 31.1 °F 24.5 °F 8.1 °F 38% 30.40 in 10.0 mi SW 6.9 mph - N/A   Clear
9:35 AM 34.7 °F 28.8 °F 9.1 °F 35% 30.41 in 10.0 mi SSW 6.9 mph - N/A   Clear
9:55 AM 38.5 °F 34.1 °F 9.1 °F 30% 30.40 in 10.0 mi SW 5.8 mph - N/A   Clear
10:15 AM 41.0 °F 37.1 °F 9.5 °F 27% 30.40 in 10.0 mi SW 5.8 mph - N/A   Clear
10:35 AM 44.6 °F 39.7 °F 9.9 °F 24% 30.40 in 10.0 mi SW 9.2 mph - N/A   Clear
10:55 AM 48.0 °F - 9.7 °F 21% 30.40 in 10.0 mi SW 10.4 mph - N/A   Clear
11:15 AM 50.5 °F - 8.6 °F 18% 30.38 in 10.0 mi SW 10.4 mph - N/A   Clear
11:35 AM 54.0 °F - 7.5 °F 16% 30.37 in 10.0 mi SW 12.7 mph - N/A   Clear
11:55 AM 57.0 °F - 6.4 °F 13% 30.35 in 10.0 mi SW 18.4 mph 21.9 mph N/A   Clear
12:15 PM 58.5 °F - 5.0 °F 12% 30.34 in 10.0 mi SW 16.1 mph - N/A   Clear
12:35 PM 59.9 °F - 5.4 °F 11% 30.32 in 10.0 mi SW 16.1 mph 20.7 mph N/A   Clear
12:55 PM 61.3 °F - 5.5 °F 11% 30.31 in 10.0 mi SW 17.3 mph 21.9 mph N/A   Clear
1:15 PM 62.6 °F - 5.2 °F 10% 30.30 in 10.0 mi SW 15.0 mph - N/A   Clear
1:55 PM 64.9 °F - 2.1 °F 8% 30.27 in 10.0 mi SSW 16.1 mph - N/A   Clear
2:15 PM 65.5 °F - 1.9 °F 8% 30.26 in 10.0 mi SW 17.3 mph - N/A   Clear
2:35 PM 65.7 °F - 1.6 °F 8% 30.26 in 10.0 mi SW 19.6 mph - N/A   Clear
2:55 PM 66.2 °F - 1.4 °F 8% 30.26 in 10.0 mi SW 16.1 mph - N/A   Clear
3:15 PM 65.5 °F - 0.1 °F 7% 30.25 in 10.0 mi SW 17.3 mph 23.0 mph N/A   Clear
3:35 PM 65.5 °F - -0.0 °F 7% 30.24 in 10.0 mi SSW 18.4 mph - N/A   Clear
3:55 PM 65.8 °F - -0.0 °F 7% 30.23 in 10.0 mi SW 16.1 mph - N/A   Clear
4:15 PM 65.7 °F - -0.8 °F 7% 30.23 in 10.0 mi SSW 13.8 mph - N/A   Clear
4:35 PM 64.2 °F - 0.3 °F 8% 30.23 in 10.0 mi SSW 12.7 mph - N/A   Clear
4:55 PM 62.4 °F - 1.6 °F 9% 30.23 in 10.0 mi SSW 10.4 mph - N/A   Clear
5:15 PM 60.1 °F - 2.8 °F 10% 30.24 in 10.0 mi SSW 10.4 mph - N/A   Clear
5:35 PM - - - N/A% 30.24 in - SSW 10.4 mph - N/A   Unknown
5:55 PM 53.2 °F - 2.3 °F 13% 30.24 in 10.0 mi South 9.2 mph - N/A   Clear
6:15 PM 50.0 °F - 1.9 °F 14% 30.24 in 10.0 mi South 10.4 mph - N/A   Clear
6:35 PM 48.2 °F - 1.0 °F 14% 30.24 in 10.0 mi South 9.2 mph - N/A   Clear
6:55 PM 48.7 °F - 0.5 °F 14% 30.24 in 10.0 mi SSE 6.9 mph - N/A   Clear
7:15 PM 47.3 °F - 0.5 °F 14% 30.23 in 10.0 mi South 9.2 mph - N/A   Clear
7:35 PM 43.3 °F 38.1 °F -0.9 °F 16% 30.24 in 10.0 mi South 9.2 mph - N/A   Clear
8:35 PM 43.5 °F 37.5 °F 1.4 °F 17% 30.25 in 10.0 mi South 11.5 mph - N/A   Clear
8:55 PM 44.4 °F 38.6 °F 2.7 °F 18% 30.25 in 10.0 mi SSW 11.5 mph - N/A   Clear
9:15 PM 46.8 °F - 3.4 °F 17% 30.25 in 10.0 mi SSW 11.5 mph - N/A   Clear
9:35 PM 45.7 °F 40.6 °F 3.9 °F 18% 30.25 in 10.0 mi SSW 10.4 mph - N/A   Clear
9:55 PM 44.4 °F 39.0 °F 3.7 °F 19% 30.25 in 10.0 mi SSW 10.4 mph - N/A   Clear
10:15 PM 42.6 °F 36.8 °F 4.1 °F 20% 30.25 in 10.0 mi SW 10.4 mph - N/A   Clear
10:35 PM 40.3 °F 33.4 °F 5.0 °F 23% 30.24 in 10.0 mi SW 11.5 mph - N/A   Clear
10:55 PM 40.6 °F 35.4 °F 5.2 °F 23% 30.24 in 10.0 mi SW 8.1 mph - N/A   Clear
11:15 PM 39.7 °F 33.7 °F 5.0 °F 24% 30.24 in 10.0 mi SW 9.2 mph - N/A   Clear
11:35 PM 38.3 °F 31.9 °F 4.6 °F 25% 30.23 in 10.0 mi SW 9.2 mph - N/A   Clear
11:55 PM 36.1 °F 28.2 °F 5.5 °F 28% 30.23 in 10.0 mi SW 11.5 mph - N/A   Clear